Location: Nied?wied?
(53.3665°N, 14.8184°E)
Time: 18:18:29
(UTC+00:00)

ISS - Pass Details

Date: 23 May 2021
Orbit: 417 x 422 km, 51.6° (Epoch: 14 June)

Event Time Altitude Azimuth Distance (km) Brightness Sun altitude
Rises 21:46:29 0° 279° (W) 2,370 0.4 -14.3°
Reaches altitude 10° 21:48:43 10° 269° (W) 1,505 -0.8 -14.4°
Maximum altitude 21:51:44 31° 206° (SSW) 769 -2.8 -14.5°
Enters shadow 21:52:14 29° 187° (S) 797 -2.9 -14.5°
